Temperature
15 15 15 14 14 14 14 14 15 15 15 15 16 16 16 16 16 16 16 16 16 17 17 17 17 17 17 17 17 17 17 17 17 17 17 17 17 17 17 18 18 18 18
15 14 15 14 14 14 14 14 15 15 15 15 15 15 16 16 16 16 16 16 16 16 17 17 17 17 17 17 17 17 17 17 17 17 17 17 17 17 18 17 18 17 17
14 14 14 14 14 14 14 14 14 15 15 15 15 15 15 15 15 16 16 16 16 16 16 16 17 17 17 17 17 17 17 17 17 17 17 17 17 17 17 17 17 17 17
14 14 14 14 14 14 14 14 14 15 15 15 15 15 15 15 15 15 16 16 16 16 16 16 16 16 17 17 17 17 17 17 17 17 17 17 17 17 17 17 17 17 18
14 14 14 14 14 14 14 14 14 15 15 15 15 15 15 15 15 15 16 16 16 15 16 16 16 16 16 17 17 17 17 17 17 17 17 17 17 17 17 17 17 17 17
14 14 14 14 14 14 14 14 14 14 14 15 15 15 15 15 15 15 15 15 15 15 15 16 16 16 16 16 17 17 17 17 17 17 17 17 17 17 17 17 17 17 17
14 14 14 14 14 14 14 14 14 14 14 15 15 15 15 15 15 15 15 15 15 15 15 15 16 16 16 16 16 17 17 17 17 17 17 17 17 17 17 17 17 17 17
14 14 14 14 14 14 14 14 14 14 14 14 15 16 16 16 15 15 15 15 15 15 15 15 16 16 16 16 16 16 17 17 17 17 17 17 17 17 17 17 17 17 17
14 14 14 14 14 14 14 14 14 14 14 14 14 15 16 16 15 15 15 15 15 15 15 15 15 15 16 16 16 16 16 16 17 17 17 17 17 17 17 17 17 17 17
14 14 14 14 14 14 14 14 14 14 14 14 14 14 14 15 15 15 15 15 15 15 15 15 15 15 15 15 16 16 16 16 16 17 17 17 17 17 17 17 17 17 17
15 15 14 14 14 14 14 14 14 14 14 14 14 14 14 14 15 15 15 15 15 15 15 15 15 15 15 15 15 16 16 16 16 16 16 16 17 17 17 17 17 17 17
15 15 14 14 14 14 14 14 14 14 14 14 14 14 14 14 14 15 15 15 15 15 14 14 15 15 15 15 15 15 16 16 16 16 16 16 16 16 17 17 17 17 17
15 15 15 14 14 14 14 14 14 14 14 14 14 14 14 14 14 14 14 15 14 15 14 15 14 14 15 15 15 15 15 16 16 16 16 16 16 16 16 16 16 16 16
15 15 15 14 14 14 14 14 14 14 14 14 14 14 14 14 14 14 14 14 15 15 15 15 14 14 14 14 15 15 15 15 16 16 16 16 16 16 16 16 16 16 16
15 15 15 14 14 14 14 14 14 14 14 14 14 14 14 13 13 13 13 13 14 15 15 14 14 14 14 14 15 14 15 15 15 16 16 16 16 16 16 16 16 16 16
15 15 15 14 14 14 14 14 14 14 14 14 14 13 14 13 13 13 13 13 13 14 14 14 14 14 14 14 14 14 14 15 15 15 16 16 16 16 16 16 16 16 16
15 15 15 14 14 14 14 14 14 14 13 13 13 13 13 13 13 13 13 13 13 13 13 13 13 13 13 13 14 14 14 14 14 15 15 15 15 15 15 16 16 16 16
15 15 14 14 14 14 14 14 14 13 13 13 13 13 13 13 13 13 13 13 13 13 13 13 13 13 13 13 13 13 14 14 14 14 15 15 15 15 15 15 15 15 15
15 14 14 14 14 14 14 13 13 13 13 13 13 13 13 13 13 12 12 12 12 12 12 12 12 12 13 13 13 13 13 13 14 14 14 15 15 15 15 15 15 15 15
14 14 14 14 14 13 13 13 13 13 13 13 13 12 12 12 12 12 12 12 12 12 12 12 12 12 12 12 12 13 13 13 13 13 14 14 14 14 14 15 15 15 15
14 14 14 13 13 13 13 13 13 13 12 12 12 12 12 12 12 12 12 12 12 12 11 12 12 12 12 12 12 12 12 12 13 13 13 13 13 13 14 14 14 14 14
14 14 13 13 13 13 13 13 13 12 12 12 12 12 12 12 12 12 12 12 12 11 11 11 11 11 11 11 11 11 11 12 12 12 12 13 13 13 13 13 14 14 14
14 13 13 13 13 13 13 13 13 12 12 12 12 11 11 11 11 11 11 11 11 11 11 11 11 11 11 11 11 11 11 11 11 11 12 12 13 13 13 13 14 14 14
13 13 13 13 13 13 13 13 12 12 11 11 11 11 11 11 11 11 10 10 10 10 10 10 10 10 10 10 10 10 10 10 11 11 11 11 12 12 13 13 13 13 14
13 13 13 12 12 12 12 12 12 11 11 11 11 11 11 10 11 11 10 10 10 10 10 10 10 10 10 10 10 10 10 10 10 11 11 11 11 12 12 12 13 13 13
13 12 12 12 12 11 12 12 12 11 11 11 11 10 11 10 10 10 10 9 9 9 9 9 9 9 9 9 9 9 9 9 9 10 10 10 10 10 11 11 12 12 12
Wind_Speed
4 4 5 5 5 5 4 4 4 4 3 3 3 2 2 2 2 2 4 7 6 6 6 5 5 6 6 5 5 4 4 4 4 4 5 5 5 5 6 7 8 10 11
5 5 5 5 6 6 5 4 4 3 2 3 3 3 2 2 2 1 2 5 7 7 7 6 6 6 6 5 5 5 5 5 4 3 4 4 4 5 7 8 9 11 11
7 6 6 6 6 6 5 5 4 3 3 2 3 3 3 3 3 3 3 2 4 7 7 7 6 6 6 5 5 6 6 5 4 3 4 5 6 7 8 9 10 11 12
8 7 6 6 7 6 5 4 4 4 4 3 3 3 3 4 4 4 3 3 3 4 6 8 6 6 7 6 6 6 5 5 5 5 6 7 8 9 10 10 11 12 12
8 7 6 7 8 6 6 5 5 4 4 4 4 4 4 4 4 4 4 5 5 4 4 6 6 6 7 7 7 6 6 5 5 6 6 7 7 8 9 11 11 11 11
8 7 6 8 8 6 6 6 6 5 4 4 4 4 4 4 4 5 5 5 5 5 5 5 4 5 7 7 7 6 6 5 5 5 5 6 7 8 9 10 10 10 11
8 8 6 8 7 7 7 7 6 6 5 4 3 4 5 5 6 5 5 4 5 5 5 5 4 4 4 6 7 6 5 5 5 4 5 5 6 7 8 9 9 9 10
8 7 7 6 7 6 7 8 6 5 5 5 3 2 3 4 5 6 5 5 5 4 5 5 5 4 4 3 7 6 5 4 4 4 4 4 6 6 7 7 8 9 9
7 7 7 7 6 7 7 7 7 7 5 5 6 4 2 3 2 4 5 5 6 5 4 5 5 5 4 4 4 5 4 3 4 4 4 3 4 5 6 6 7 8 9
6 6 7 7 7 6 6 7 7 6 5 5 5 5 5 4 2 2 4 6 6 6 6 5 5 5 5 4 5 6 4 3 2 3 3 3 3 5 6 6 7 8 8
5 5 6 6 6 6 7 7 7 7 6 6 5 4 4 3 3 2 3 4 4 5 5 5 4 5 5 5 5 6 5 3 1 2 2 1 2 4 5 5 7 8 8
3 5 5 5 6 6 6 6 6 7 7 6 5 5 4 4 4 3 3 4 4 4 4 4 4 5 5 5 6 7 5 3 2 1 1 1 1 4 4 5 6 7 8
3 4 4 5 5 5 6 6 6 6 6 6 6 5 5 5 4 3 3 3 3 3 3 3 4 4 5 5 4 6 4 3 2 1 0 1 2 3 5 5 5 5 6
4 4 4 5 5 5 5 5 5 6 6 6 6 6 5 5 4 4 3 3 3 2 3 4 4 5 5 5 5 5 2 3 2 1 1 2 3 4 4 6 6 6 6
3 4 4 4 5 5 5 5 5 6 5 6 6 6 5 5 5 4 4 4 4 3 3 3 3 5 6 5 6 4 3 3 3 3 3 3 4 5 6 7 7 8 8
3 3 3 4 5 5 5 5 5 5 5 6 5 6 6 5 5 4 4 4 4 4 3 4 4 5 5 5 5 5 4 3 3 3 4 5 5 5 7 8 8 9 9
3 3 3 4 4 4 5 5 5 5 5 5 5 6 6 6 5 5 5 4 4 4 4 4 4 5 5 6 5 5 5 5 3 2 3 5 6 7 7 8 9 10 10
3 3 3 3 4 4 4 5 4 4 5 5 5 5 6 5 6 5 5 5 5 5 5 6 5 5 6 6 6 6 5 5 5 2 4 5 7 8 9 9 10 10 11
2 2 2 2 3 3 3 3 4 4 4 4 5 5 5 6 6 5 5 5 5 5 5 5 6 5 6 6 6 6 6 5 6 5 5 7 8 8 9 10 10 11 12
2 2 2 2 2 2 3 3 3 3 3 4 4 4 5 6 6 6 5 6 5 5 5 5 5 6 6 6 6 6 6 5 6 6 6 6 7 9 11 11 12 12 13
3 3 2 2 3 2 3 4 3 3 3 3 4 4 5 6 7 7 6 7 7 6 5 6 6 6 6 6 7 7 7 7 7 5 6 6 6 7 8 11 13 13 13
3 3 3 3 3 3 5 6 5 2 3 3 4 4 4 4 4 3 5 6 7 7 7 7 7 8 8 8 7 8 8 8 7 5 7 8 7 7 7 8 8 10 13
3 3 3 3 3 4 4 4 5 4 3 4 4 4 4 4 6 6 4 4 4 4 6 8 9 9 9 9 10 10 9 9 9 8 8 10 8 9 8 9 9 12 14
3 3 3 3 2 3 4 3 4 2 2 3 4 4 5 5 7 8 8 7 7 6 6 7 8 9 9 10 10 11 11 11 11 9 8 10 9 9 9 9 10 13 14
4 3 3 2 2 2 3 1 5 2 2 3 3 4 5 5 7 10 9 8 8 7 4 6 9 10 12 12 11 9 9 9 10 9 8 9 10 10 10 9 10 13 14
4 3 3 2 1 1 2 1 6 3 3 3 3 3 3 5 7 10 9 8 9 9 10 9 9 9 10 8 9 9 9 9 10 9 7 7 9 8 9 8 8 8 10
Wind_Direction
31 26 27 15 9 6 3 357 354 12 359 15 23 18 31 45 48 37 83 73 54 49 47 42 39 36 30 29 41 52 67 60 52 61 77 85 103 113 113 117 115 113 115
35 23 29 24 19 9 6 358 12 12 19 32 37 39 30 53 63 52 75 97 84 61 49 46 42 38 41 37 37 54 64 64 52 61 86 96 114 122 121 123 123 120 116
39 34 28 29 22 15 13 13 23 13 34 48 54 49 54 42 48 60 62 62 94 89 69 54 46 41 48 53 45 57 59 64 56 70 104 107 109 113 119 125 127 124 122
39 36 31 31 24 20 22 26 23 26 38 39 51 57 63 59 54 58 68 72 57 61 84 69 57 52 54 58 57 61 62 62 65 77 94 101 101 103 113 121 125 124 124
34 41 33 27 28 28 27 26 33 29 44 45 63 64 59 62 60 54 58 58 62 52 61 83 80 68 59 58 61 66 67 67 70 80 90 102 107 113 116 120 125 126 129
35 37 38 35 29 36 34 35 37 40 40 38 63 74 68 68 63 57 47 52 53 52 50 51 73 91 82 66 66 75 69 68 77 87 96 108 113 119 123 126 128 130 132
38 40 33 36 28 37 34 34 32 48 45 31 64 85 87 75 63 57 47 44 53 50 50 50 47 49 92 97 76 74 72 69 77 97 100 112 122 121 123 132 136 138 134
37 35 36 38 38 37 38 35 32 33 44 30 20 49 80 90 61 54 49 44 40 47 44 44 50 46 43 69 87 80 69 67 74 95 103 110 127 131 130 137 145 148 147
40 36 36 32 34 36 38 32 30 33 40 44 34 16 30 47 36 58 46 46 38 33 39 37 38 41 43 48 72 85 71 69 76 93 108 120 137 141 145 149 154 156 161
45 38 35 31 35 38 38 38 39 33 29 41 49 38 37 43 17 45 49 41 36 33 28 30 31 32 37 41 53 59 57 58 76 86 105 122 146 159 157 165 167 166 172
47 42 36 35 36 39 40 40 38 34 38 35 36 37 41 38 26 35 36 22 36 36 27 25 30 31 29 33 36 46 37 31 71 97 98 125 165 173 170 175 179 178 178
58 52 39 39 39 41 41 41 42 44 39 39 34 35 31 30 25 29 26 24 25 26 28 30 26 27 23 25 35 37 28 23 39 78 99 140 202 192 186 184 186 187 190
64 53 46 42 43 42 42 41 44 41 46 42 37 35 35 34 24 17 16 17 14 24 31 39 30 23 19 13 22 16 32 26 19 25 252 220 228 212 206 198 190 197 202
64 59 55 51 50 45 45 45 41 44 43 45 43 39 35 36 27 20 10 356 359 21 28 31 26 22 12 4 13 336 6 30 352 320 275 240 226 214 209 203 197 208 216
78 70 67 65 60 50 45 47 46 46 45 41 40 40 35 34 27 21 9 356 345 345 6 18 8 5 358 356 347 333 341 15 331 304 280 262 243 228 223 220 215 217 222
87 80 75 72 71 61 55 49 50 39 45 50 36 35 30 28 24 19 9 2 351 338 332 349 346 345 347 336 342 330 322 292 271 270 272 264 260 249 238 231 224 223 227
108 94 75 68 64 57 56 56 46 43 37 43 42 40 36 26 20 17 9 2 354 343 325 328 338 337 333 331 333 325 313 300 290 232 260 264 260 255 251 243 233 228 230
105 102 90 78 67 57 50 49 44 39 35 33 32 31 30 27 19 14 5 1 358 346 329 327 327 335 332 331 326 315 308 302 298 273 255 261 260 256 252 247 241 235 234
124 120 112 85 71 62 57 50 45 39 37 32 25 19 17 15 9 9 358 358 351 346 335 321 325 329 322 327 322 312 306 302 294 279 251 244 248 251 250 244 242 242 239
129 119 111 91 74 63 47 37 38 30 30 30 26 19 13 8 1 354 350 349 342 333 330 324 321 322 321 324 316 317 312 308 297 294 289 272 249 241 243 242 241 243 241
126 116 109 97 78 59 34 13 24 17 16 17 16 18 22 15 8 355 346 340 334 325 322 320 319 318 319 324 325 320 309 307 297 289 290 281 268 259 248 237 235 238 241
121 116 110 93 80 63 41 11 346 4 7 6 4 1 8 5 5 347 347 340 334 324 323 318 314 314 318 320 320 310 307 303 300 302 297 288 279 272 263 257 239 233 239
131 124 113 106 91 72 58 29 354 344 353 358 353 355 359 359 339 344 338 287 299 298 301 307 308 311 311 316 312 306 301 297 293 297 297 287 280 273 268 258 236 235 238
145 138 126 120 109 84 71 37 329 314 349 352 352 348 343 348 4 345 329 325 325 325 317 305 305 306 308 308 303 298 296 291 286 280 273 277 280 278 275 266 238 233 235
156 152 141 148 146 119 94 7 300 314 317 332 343 346 343 344 15 336 322 322 320 319 309 294 296 292 291 288 291 290 290 289 288 287 279 276 283 286 282 272 253 230 231
166 164 159 174 181 172 97 338 299 297 306 318 323 321 7 348 347 328 320 320 316 319 317 309 295 285 287 285 271 278 288 288 288 288 283 280 286 291 283 274 268 254 243
Height
1551 1550 1549 1546 1545 1544 1543 1541 1541 1540 1540 1540 1539 1540 1540 1539 1540 1540 1540 1539 1539 1539 1539 1539 1538 1538 1537 1536 1535 1534 1534 1533 1531 1529 1528 1528 1529 1530 1532 1533 1535 1536 1538
1552 1551 1550 1547 1546 1544 1543 1542 1541 1540 1540 1540 1540 1539 1540 1540 1540 1540 1540 1540 1539 1540 1539 1539 1539 1538 1538 1537 1536 1535 1535 1534 1532 1530 1529 1528 1529 1530 1531 1533 1536 1538 1540
1553 1552 1551 1549 1547 1545 1544 1543 1542 1541 1541 1540 1540 1540 1540 1540 1540 1540 1540 1541 1541 1540 1540 1540 1539 1539 1538 1538 1537 1537 1536 1535 1533 1530 1529 1529 1529 1529 1529 1532 1536 1540 1543
1555 1553 1551 1550 1548 1547 1545 1544 1542 1542 1541 1541 1541 1541 1541 1540 1540 1541 1541 1541 1541 1541 1541 1540 1540 1540 1539 1539 1538 1538 1537 1536 1535 1533 1532 1532 1532 1531 1531 1533 1537 1541 1545
1556 1555 1553 1551 1550 1548 1546 1545 1544 1543 1542 1541 1541 1541 1541 1541 1541 1541 1541 1542 1541 1541 1541 1541 1540 1540 1540 1540 1540 1539 1539 1539 1538 1537 1536 1536 1536 1536 1536 1538 1541 1544 1547
1557 1556 1555 1554 1552 1550 1548 1547 1545 1544 1543 1543 1543 1542 1542 1542 1542 1542 1542 1542 1542 1542 1542 1542 1542 1541 1541 1541 1541 1541 1540 1540 1540 1540 1539 1540 1540 1541 1541 1543 1545 1547 1549
1559 1558 1557 1555 1553 1552 1550 1549 1547 1546 1545 1544 1544 1544 1544 1544 1544 1543 1543 1543 1543 1543 1543 1542 1542 1542 1542 1542 1542 1542 1541 1542 1542 1542 1542 1542 1543 1544 1545 1546 1548 1549 1551
1561 1560 1558 1557 1555 1553 1552 1550 1548 1548 1547 1546 1546 1546 1546 1547 1546 1545 1545 1544 1544 1544 1544 1544 1543 1543 1543 1543 1542 1542 1543 1543 1543 1544 1544 1545 1545 1546 1547 1548 1550 1551 1553
1562 1561 1560 1559 1557 1556 1554 1552 1551 1550 1549 1548 1547 1548 1547 1547 1547 1547 1546 1546 1545 1545 1545 1544 1544 1544 1544 1544 1544 1543 1543 1544 1544 1545 1545 1546 1547 1548 1549 1550 1551 1553 1554
1564 1562 1561 1560 1559 1558 1556 1555 1553 1552 1551 1551 1550 1549 1549 1549 1549 1548 1548 1547 1546 1546 1545 1545 1545 1544 1544 1544 1544 1544 1544 1544 1544 1545 1546 1547 1548 1549 1550 1551 1552 1554 1554
1565 1564 1563 1561 1560 1559 1558 1556 1555 1554 1553 1552 1552 1551 1550 1550 1550 1550 1549 1549 1548 1547 1546 1546 1545 1545 1545 1545 1545 1544 1544 1544 1545 1545 1546 1547 1548 1549 1550 1552 1553 1554 1555
1566 1565 1564 1563 1562 1561 1559 1558 1557 1556 1555 1554 1553 1553 1552 1552 1551 1551 1550 1549 1549 1548 1547 1547 1546 1545 1545 1545 1545 1544 1545 1545 1545 1545 1546 1547 1548 1549 1550 1551 1552 1554 1555
1568 1566 1565 1564 1563 1562 1561 1560 1559 1558 1557 1555 1555 1554 1553 1553 1552 1552 1551 1551 1550 1549 1548 1548 1547 1546 1545 1545 1545 1544 1544 1544 1545 1545 1545 1546 1547 1548 1549 1550 1552 1553 1554
1568 1567 1566 1565 1564 1563 1562 1561 1561 1559 1558 1557 1556 1555 1555 1554 1553 1553 1552 1551 1551 1550 1550 1549 1548 1547 1546 1545 1544 1544 1544 1544 1544 1544 1545 1545 1546 1547 1548 1549 1550 1551 1553
1568 1568 1567 1566 1565 1564 1563 1563 1562 1561 1559 1559 1558 1557 1556 1555 1554 1553 1553 1552 1552 1550 1550 1549 1548 1547 1546 1545 1544 1544 1543 1543 1542 1543 1543 1543 1544 1545 1546 1547 1548 1549 1550
1568 1568 1568 1567 1566 1565 1564 1563 1562 1561 1561 1559 1558 1558 1557 1556 1555 1554 1553 1552 1552 1551 1550 1549 1548 1547 1545 1544 1543 1543 1542 1541 1541 1541 1541 1541 1542 1542 1543 1544 1545 1546 1547
1569 1568 1568 1568 1567 1566 1565 1564 1563 1562 1562 1561 1560 1559 1557 1556 1555 1554 1553 1552 1551 1551 1549 1548 1547 1546 1544 1543 1542 1541 1541 1540 1540 1539 1539 1539 1539 1539 1540 1541 1542 1543 1544
1569 1568 1568 1568 1567 1566 1566 1565 1564 1563 1562 1561 1560 1559 1558 1557 1556 1555 1553 1552 1551 1550 1549 1547 1546 1545 1543 1542 1540 1539 1539 1538 1537 1536 1536 1535 1535 1536 1536 1536 1537 1538 1539
1568 1568 1568 1568 1567 1567 1566 1565 1564 1564 1563 1562 1561 1560 1558 1557 1556 1554 1553 1552 1551 1549 1548 1546 1545 1543 1541 1540 1538 1537 1537 1535 1535 1534 1533 1532 1532 1532 1532 1532 1533 1534 1535
1567 1567 1567 1567 1567 1566 1566 1565 1565 1564 1563 1562 1560 1559 1558 1557 1555 1554 1553 1551 1550 1548 1547 1545 1544 1542 1540 1538 1537 1536 1534 1533 1532 1531 1530 1529 1528 1528 1528 1528 1528 1529 1530
1566 1566 1566 1566 1566 1566 1565 1565 1564 1563 1563 1562 1560 1559 1557 1555 1554 1553 1551 1550 1548 1547 1546 1544 1542 1540 1539 1537 1535 1533 1532 1530 1529 1528 1527 1526 1525 1524 1524 1523 1523 1524 1525
1565 1565 1565 1565 1565 1564 1564 1563 1563 1562 1562 1561 1560 1558 1557 1555 1553 1551 1550 1548 1546 1545 1544 1542 1540 1539 1537 1535 1533 1531 1529 1528 1526 1526 1524 1522 1521 1520 1519 1519 1519 1519 1519
1563 1563 1564 1564 1563 1563 1562 1562 1561 1561 1560 1559 1558 1557 1555 1553 1551 1550 1548 1546 1544 1542 1541 1540 1538 1536 1534 1532 1530 1528 1526 1524 1522 1521 1520 1517 1517 1515 1515 1514 1513 1513 1513
1562 1562 1562 1562 1562 1561 1561 1560 1560 1559 1558 1557 1556 1555 1554 1552 1549 1547 1546 1544 1542 1540 1538 1536 1535 1532 1530 1528 1526 1524 1522 1520 1517 1516 1515 1513 1512 1510 1509 1508 1507 1506 1507
1560 1561 1561 1560 1560 1560 1559 1559 1558 1557 1557 1556 1554 1553 1551 1549 1547 1544 1543 1541 1539 1537 1534 1532 1530 1527 1525 1523 1521 1519 1517 1516 1513 1512 1511 1509 1506 1505 1503 1501 1501 1500 1500
1558 1559 1559 1559 1558 1558 1557 1557 1556 1556 1555 1554 1552 1550 1548 1546 1544 1542 1540 1538 1536 1533 1531 1528 1525 1523 1521 1519 1517 1515 1513 1511 1509 1507 1505 1504 1502 1500 1497 1495 1495 1494 1493